Location: Elche
(38.2500°N, 0.7000°W)
Time: 14:34:31
(UTC+01:00)

Tiangong 2 - Visible Passes

Search period start: 21 March 2019 00:00
Search period end: 31 March 2019 00:00
Orbit: 379 x 390 km, 42.8° (Epoch: 21 March)

Date Brightness Start Highest point End Pass type
(mag) Time Alt. Az. Time Alt. Az. Time Alt. Az.
21 Mar 2.7 05:07:14 35° NE 05:07:14 35° NE 05:09:28 10° E visible
22 Mar 0.9 05:42:57 47° WNW 05:43:45 81° SSW 05:46:55 10° ESE visible
23 Mar 3.9 04:46:33 17° E 04:46:33 17° E 04:47:23 10° E visible
23 Mar 2.4 06:18:47 14° W 06:20:49 25° SSW 06:23:28 10° SSE visible
24 Mar 2.4 05:22:32 30° SSE 05:22:32 30° SSE 05:24:29 10° SE visible
25 Mar 3.2 05:58:43 13° SSW 05:58:43 13° SSW 06:00:01 10° S visible
28 Mar 3.9 21:07:07 10° SSW 21:07:10 10° SSW 21:07:10 10° SSW visible
29 Mar 2.9 20:08:31 10° S 20:10:28 15° SE 20:11:18 14° SE visible
30 Mar 1.2 20:44:19 10° SW 20:47:22 51° SSE 20:47:31 51° SE visible
